sat.trackr.live / text

‹ back to catalog

STARLINK-32848

NORAD 62808 · 2025-018C

PAYLOAD ACTIVE UNKNOWN

§ Identity

Operator
Country
US
Launch date
2025-01-24
Launch site
AFWTR
Launch vehicle
Mass (kg)
RCS (m²)

Purposes: comms

External: N2YO · Heavens-Above · Gunter

§ Orbital elements

Epoch: 2026-09-21T20:19:34.256928Z

Period
94.01 min
Inclination
53.1593°
Eccentricity
0.0001205
Mean motion
15.31690037 rev/d
Perigee alt
469.9 km
Apogee alt
471.6 km
Semi-major
6,848.9 km
B*
3.6424e-4
RAAN
116.8586°
Arg perigee
73.1372°
Mean anomaly
286.9761°
Rev number
9,322

§ Raw data

STARLINK-328481 62808U 25018C   26264.84692427  .00010951  00000+0  36424-3 0  99992 62808  53.1593 116.8586 0001205  73.1372 286.9761 15.31690037 93228

JSON: /api/v1/satellites/62808 · /tle

For live sub-satellite position, see the globe view (requires WebGL).

§ Visibility from observer

Set your observer location to see the next 7 days of passes ≥ 10°. The values pass through the URL so the page stays shareable.

No JS? Fill the form by hand. The geolocation button needs JavaScript.